Regional Weather Roundup
Issued by NWS Kansas City/Pleasant Hill, MO

Home | Current Version | Previous Version | Text Only | Print | Product List | Glossary On
Versions: 1 2 3 4 5 6 7 8 9 10 11 12 13 14 15 16 17 18 19 20 21 22 23 24 25 26 27 28 29 30 31 32 33 34 35 36 37 38 39 40 41 42 43 44 45 46 47 48 49 50
000
ASUS43 KEAX 261110
RWREAX

WEATHER ROUNDUP FOR EASTERN KANSAS AND NORTHWEST MISSOURI
NATIONAL WEATHER SERVICE KANSAS CITY/PLEASANT HILL MO
600 AM CDT MON SEP 26 2016

KSZ040-057-103>105-MOZ028-029-037-043-261200-
...KANSAS CITY METROPOLITAN AREA...

CITY           SKY/WX    TMP DP  RH WIND       PRES   REMARKS
K.C. INTL      CLEAR     50  46  86 NW7       30.24S
K.C. DOWNTOWN  CLEAR     54  48  80 NW6       30.23S
LEES SUMMIT    CLEAR     53  47  79 NW5       30.24R
OLATHE - IXD   CLEAR     50  46  86 W5        30.25S
OLATHE - OJC   CLEAR     51  45  79 NW3       30.24S
LAWRENCE       CLEAR     48  46  93 NW8       30.26R

$$

MOZ001>008-011>017-020>025-030>033-038>040-044>046-053-054-261200-
...NORTHERN AND CENTRAL MISSOURI...

CITY           SKY/WX    TMP DP  RH WIND       PRES   REMARKS
ST. JOSEPH     CLEAR     46  43  89 W3        30.24S
MOSBY          SUNNY     48  46  93 CALM      30.23S
WHITEMAN AFB   PTCLDY    54  53  95 N5        30.20S
CLINTON        CLEAR     54  52  94 N6        30.22S
SEDALIA        CLEAR     56  51  84 NW6       30.22R
WARSAW         NOT AVBL
CHILLICOTHE      N/A     51  46  83 CALM      30.22S
KIRKSVILLE     CLEAR     48  44  86 W6        30.18S

$$

MOZ041-047>049-056>058-063>065-088>090-097-261200-
...EASTERN AND SOUTHERN MISSOURI...

CITY           SKY/WX    TMP DP  RH WIND       PRES   REMARKS
ST. LOUIS INTL CLOUDY    61  56  83 W8        30.15R
SPIRIT OF STL  CLOUDY    60  58  92 W3        30.14R
COLUMBIA       MOCLDY    59  55  87 NW8       30.18R
JEFFERSON CITY MOCLDY    60  58  92 NW6       30.18R
ROLLA          CLOUDY    57  56  96 W5        30.17S
OSAGE BEACH    CLOUDY    58  58 100 CALM      30.20R
SPRINGFIELD    MOCLDY    58  55  90 NW3       30.20R
BRANSON        CLOUDY    57  57 100 CALM      30.22R
JOPLIN         CLOUDY    56  56 100 CALM      30.24
WEST PLAINS    LGT RAIN  57  53  86 N7        30.19R

$$

IAZ060-094-KSZ022-034>040-054-083-096-NEZ052-066-093-261200-
...KANSAS...SOUTHEAST NEBRASKA AND IOWA...

CITY           SKY/WX    TMP DP  RH WIND       PRES   REMARKS
TOPEKA         CLEAR     50  44  80 W3        30.27R HAZE
MANHATTAN      CLEAR     46  42  86 W3        30.29R
EMPORIA        CLEAR     49  44  83 W6        30.27S
CHANUTE        CLEAR     52  48  86 N6        30.25R
WICHITA        CLEAR     52  45  77 N9        30.28F
OMAHA          PTCLDY    50  39  66 SE3       30.22S
LINCOLN        CLEAR     45  37  73 NE3       30.27S
FALLS CITY     CLEAR     46  42  86 W5        30.25R
LAMONI         CLEAR     47  42  83 W7        30.19S
DES MOINES     CLEAR     51  41  68 W7        30.14S

$$




USA.gov is the U.S. government's official web portal to all federal, state and local government web resources and services.